Weather History for KCOU - May, 2013

Change the Weather History Date:

Sunday, May 26, 2013

  Actual Average Record
Temperature  
Mean Temperature 72 °F 67 °F  
Max Temperature 84 °F 77 °F 93 °F (1953)
Min Temperature 59 °F 57 °F 38 °F (1901)
Degree Days  
Heating Degree Days 0 2  
Month to date heating degree days 135 101  
Since 1 July heating degree days 4896 5004  
Cooling Degree Days 7 4  
Month to date cooling degree days 75 57  
Year to date cooling degree days 97 82  
Growing Degree Days 22 (Base 50)    
Moisture  
Dew Point 63 °F    
Average Humidity 74    
Maximum Humidity 93    
Minimum Humidity 55    
Precipitation  
Precipitation 0.01 in 0.15 in 2.96 in (2000)
Month to date precipitation 3.08 4.20  
Year to date precipitation 20.00 15.77  
Snow  
Snow 0.00 in 0.00 in 0.00 in (2014)
Month to date snowfall T 0.0  
Since 1 July snowfall 35.0 18.0  
Snow Depth 0.00 in    
Sea Level Pressure  
Sea Level Pressure 30.04 in    
Wind  
Wind Speed 9 mph (SE)    
Max Wind Speed 20 mph    
Max Gust Speed 24 mph    
Visibility 10 miles    
Events Rain , Thunderstorm    
T = Trace of Precipitation, MM = Missing Value Source: NWS Daily Summary

Daily Weather History Graph

Daily Weather History Graph

Search for Another Location

Airport or City:

Trip Planner

Search our weather history database for the weather conditions in past years. The results will help you decide how hot, cold, wet, or windy it might be!

Date:

Astronomy

May. 26, 2013 Rise Set
Actual Time 5:48 AM CDT 8:23 PM CDT
Civil Twilight 5:17 AM CDT 8:54 PM CDT
Nautical Twilight 4:39 AM CDT 9:33 PM CDT
Astronomical Twilight 3:56 AM CDT 10:16 PM CDT
Moon 10:12 PM CDT (5/26) 7:17 AM CDT (5/26)
Length of Visible Light 15h 37m
Length of Day
14h 35m
Waning Gibbous, 96% of the Moon is Illuminated
May 26
Waning Gibbous
May 31
Last Quarter
Jun 8
New
Jun 16
First Quarter
Jun 23
Full

Hourly Weather History & Observations

Time (CDT) Temp. Heat Index Dew Point Humidity Pressure Visibility Wind Dir Wind Speed Gust Speed Precip Events Conditions
12:54 AM 63.0 °F - 59.0 °F 87% 30.14 in 10.0 mi ESE 6.9 mph - N/A   Mostly Cloudy
1:54 AM 62.1 °F - 57.9 °F 86% 30.12 in 10.0 mi ESE 8.1 mph - N/A   Scattered Clouds
2:54 AM 61.0 °F - 57.9 °F 90% 30.10 in 10.0 mi SE 8.1 mph - N/A   Partly Cloudy
3:54 AM 60.1 °F - 57.0 °F 90% 30.10 in 10.0 mi SE 6.9 mph - N/A   Scattered Clouds
4:46 AM 61.0 °F - 57.0 °F 87% 30.11 in 10.0 mi ESE 5.8 mph - 0.01 in Rain , Thunderstorm Light Thunderstorms and Rain
4:54 AM 60.1 °F - 57.0 °F 90% 30.10 in 10.0 mi ESE 6.9 mph - 0.01 in Thunderstorm Thunderstorm
5:18 AM 60.1 °F - 57.0 °F 90% 30.11 in 10.0 mi ESE 8.1 mph - N/A   Clear
5:54 AM 60.1 °F - 57.0 °F 90% 30.09 in 10.0 mi ESE 6.9 mph - N/A   Clear
6:54 AM 59.0 °F - 57.0 °F 93% 30.10 in 10.0 mi East 6.9 mph - N/A   Partly Cloudy
7:54 AM 63.0 °F - 59.0 °F 87% 30.10 in 10.0 mi SE 6.9 mph - N/A   Clear
8:54 AM 69.1 °F - 61.0 °F 75% 30.10 in 10.0 mi South 10.4 mph - N/A   Clear
9:54 AM 73.0 °F - 64.0 °F 73% 30.09 in 10.0 mi South 9.2 mph - N/A   Clear
10:54 AM 75.9 °F - 66.0 °F 71% 30.09 in 10.0 mi South 10.4 mph - N/A   Clear
11:54 AM 78.1 °F - 66.9 °F 68% 30.08 in 10.0 mi South 11.5 mph - N/A   Clear
12:54 PM 82.0 °F 85.5 °F 69.1 °F 65% 30.06 in 10.0 mi South 10.4 mph - N/A   Clear
1:54 PM 80.1 °F 82.3 °F 66.9 °F 64% 30.05 in 10.0 mi South 12.7 mph - N/A   Clear
2:54 PM 82.9 °F 85.4 °F 66.9 °F 58% 30.03 in 10.0 mi South 13.8 mph - N/A   Partly Cloudy
3:54 PM 84.0 °F 86.3 °F 66.0 °F 55% 29.99 in 10.0 mi South 16.1 mph 24.2 mph N/A   Clear
4:54 PM 82.0 °F 83.4 °F 64.0 °F 54% 29.99 in 10.0 mi South 12.7 mph - N/A   Overcast
5:54 PM 80.1 °F 81.9 °F 64.9 °F 60% 29.98 in 10.0 mi South 6.9 mph - N/A   Mostly Cloudy
6:54 PM 79.0 °F - 64.9 °F 62% 29.96 in 10.0 mi SSE 4.6 mph - N/A   Mostly Cloudy
7:32 PM 73.0 °F - 64.9 °F 76% 29.98 in 10.0 mi North 16.1 mph - N/A Thunderstorm Thunderstorm
7:54 PM 73.0 °F - 64.0 °F 73% 29.98 in 10.0 mi North 5.8 mph - N/A Thunderstorm Thunderstorm
8:30 PM 72.0 °F - 64.9 °F 78% 30.00 in 10.0 mi NE 9.2 mph - N/A   Mostly Cloudy
8:54 PM 72.0 °F - 64.0 °F 76% 29.97 in 10.0 mi East 10.4 mph - N/A   Mostly Cloudy
9:01 PM 72.0 °F - 64.0 °F 76% 29.98 in 10.0 mi East 8.1 mph - N/A Thunderstorm Scattered Clouds
9:13 PM 72.0 °F - 64.0 °F 76% 29.98 in 10.0 mi SE 8.1 mph - N/A   Partly Cloudy
9:54 PM 70.0 °F - 64.9 °F 84% 29.96 in 10.0 mi SSE 8.1 mph - N/A   Scattered Clouds
10:54 PM 70.0 °F - 64.9 °F 84% 29.97 in 10.0 mi SSE 8.1 mph - N/A   Scattered Clouds
11:54 PM 72.0 °F - 64.9 °F 78% 29.97 in 10.0 mi South 9.2 mph - N/A   Clear